Location: Chagrin Falls Park
(41.4139°N, 81.3865°W)
Time: 15:36:39
(UTC+00:00)

STARLINK-2647 - Visible Passes

Search period start: 28 November 2021 00:00
Search period end: 08 December 2021 00:00
Orbit: 546 x 548 km, 53.1° (Epoch: 27 November)

Date Brightness Start Highest point End Pass type
(mag) Time Alt. Az. Time Alt. Az. Time Alt. Az.
28 Nov 4.1 00:01:20 10° WSW 00:05:21 50° NNW 00:05:38 49° NNW visible
28 Nov 4.5 23:55:13 10° W 23:59:07 40° NNW 23:59:47 37° N visible
29 Nov 4.8 23:49:09 10° W 23:52:53 33° NNW 23:53:52 29° N visible
30 Nov 5.1 23:43:07 10° W 23:46:42 28° NNW 23:47:55 24° N visible
01 Dec 5.3 23:37:07 10° WNW 23:40:31 24° NNW 23:41:55 20° N visible
02 Dec 5.4 23:31:09 10° WNW 23:34:22 21° NNW 23:35:53 18° NNE visible
03 Dec 5.5 23:25:11 10° WNW 23:28:13 19° NNW 23:29:50 16° NNE visible
04 Dec 5.6 23:19:13 10° NW 23:22:05 18° N 23:23:47 15° NNE visible
05 Dec 5.6 23:13:14 10° NW 23:15:58 17° N 23:17:43 14° NNE visible
06 Dec 5.6 23:07:12 10° NW 23:09:51 16° N 23:11:40 13° NNE visible
07 Dec 5.6 23:01:08 10° NW 23:03:45 16° N 23:05:38 12° NNE visible
